Location: Alvediston
(51.0078°N, 2.0364°W)
Time: 16:39:29
(UTC+00:00)

Timation 2 Rocket - Pass Details

Date: 27 February 2020
Orbit: 904 x 1078 km, 70.0° (Epoch: 29 March)

Event Time Altitude Azimuth Distance (km) Brightness Sun altitude
Rises 18:34:37 0° 328° (NNW) 3,859 7.6 -8.6°
Reaches altitude 10° 18:37:16 10° 330° (NNW) 2,913 6.9 -9.0°
Maximum altitude 18:44:10 74° 56° (NE) 1,125 4.2 -10.1°
Drops below altitude 10° 18:51:02 10° 141° (SE) 2,899 6.1 -11.2°
Sets 18:53:39 0° 143° (SE) 3,839 6.7 -11.6°
